Tracking 18957 objects as of 22-Jan-2018
HD Live streaming from Space Station
objects crossing your sky now

IRIDIUM 53

Track IRIDIUM 53 now!
10-day predictions
IRIDIUM 53 is classified as:


NORAD ID: 25173
Int'l Code: 1998-010E
Perigee: 783.4 km
Apogee: 786.2 km
Inclination: 86.4 °
Period: 100.4 minutes
Semi major axis: 7155 km
RCS: 4.29 m2 (large)
Launch date: February 18, 1998
Source: United States (US)
Launch site: AIR FORCE WESTERN TEST RANGE (AFWTR)
aabbcc
Your satellite tracking list
Your tracking list is empty




NASA's NSSDC Master Catalog

Two Line Element Set (TLE):
1 25173U 98010E   18021.16510098  .00000122  00000-0  36420-4 0  9992
2 25173  86.3956 259.2321 0001980  89.0813 271.0610 14.34220503 43017
Source of the keplerian elements: AFSPC